CMP450 MPTO-TJSJ

Flight info

Callsign CMP450
Flight time N/A
Altitude 35000
Route EGET3A EGETA SIROT UM525 MELLA JOSHE3
Aircraft B738/M-SDE3FGHIRWY/S

Departure

Time 2026-05-05 23:28
Airport Tocumen International Airport (MPTO)

Arrival

Time N/A
Airport Luis Munoz Marin International Airport (TJSJ)
Time Latitude Longitude Altitude Speed Heading
2026-05-05 22:51 9.06410 -79.38878 48 ft 0 kts 264°
2026-05-05 23:18 9.06411 -79.38871 48 ft 4 kts 263°
2026-05-05 23:18 9.06415 -79.38843 49 ft 4 kts 260°
2026-05-05 23:18 9.06421 -79.38817 49 ft 4 kts 246°
2026-05-05 23:19 9.06433 -79.38799 49 ft 4 kts 182°
2026-05-05 23:19 9.06440 -79.38801 49 ft 1 kts 139°
2026-05-05 23:19 9.06441 -79.38802 49 ft 1 kts 139°
2026-05-05 23:22 9.06432 -79.38794 49 ft 5 kts 139°
2026-05-05 23:22 9.06400 -79.38751 49 ft 10 kts 120°
2026-05-05 23:22 9.06357 -79.38675 49 ft 14 kts 119°
2026-05-05 23:22 9.06302 -79.38595 48 ft 14 kts 155°
2026-05-05 23:23 9.06217 -79.38622 47 ft 13 kts 210°
2026-05-05 23:23 9.06140 -79.38666 47 ft 13 kts 208°
2026-05-05 23:23 9.06064 -79.38709 47 ft 12 kts 208°
2026-05-05 23:23 9.05990 -79.38751 45 ft 12 kts 210°
2026-05-05 23:24 9.05919 -79.38792 47 ft 12 kts 210°
2026-05-05 23:24 9.05849 -79.38832 45 ft 11 kts 209°
2026-05-05 23:24 9.05781 -79.38871 47 ft 11 kts 209°
2026-05-05 23:24 9.05715 -79.38908 46 ft 11 kts 209°
2026-05-05 23:25 9.05651 -79.38946 47 ft 11 kts 210°
2026-05-05 23:25 9.05582 -79.38985 47 ft 12 kts 208°
2026-05-05 23:25 9.05501 -79.39031 48 ft 14 kts 210°
2026-05-05 23:25 9.05404 -79.39087 48 ft 18 kts 209°
2026-05-05 23:26 9.05283 -79.39156 47 ft 22 kts 210°
2026-05-05 23:26 9.05143 -79.39237 46 ft 24 kts 210°
2026-05-05 23:26 9.05003 -79.39316 43 ft 23 kts 210°
2026-05-05 23:26 9.04875 -79.39385 40 ft 18 kts 192°
2026-05-05 23:27 9.04798 -79.39310 40 ft 16 kts 120°
2026-05-05 23:27 9.04829 -79.39223 41 ft 16 kts 31°
2026-05-05 23:27 9.05093 -79.39073 43 ft 82 kts 29°
2026-05-05 23:27 9.05806 -79.38668 46 ft 150 kts 29°
2026-05-05 23:28 9.06785 -79.38120 495 ft 171 kts 26°
2026-05-05 23:28 9.07860 -79.37587 1386 ft 173 kts 31°
2026-05-05 23:28 9.08864 -79.36843 2146 ft 189 kts 36°
2026-05-05 23:28 9.10005 -79.35975 2488 ft 220 kts 36°
2026-05-05 23:29 9.11296 -79.34974 2874 ft 243 kts 36°
2026-05-05 23:29 9.12665 -79.33926 3592 ft 255 kts 37°
2026-05-05 23:29 9.13840 -79.32574 4337 ft 267 kts 63°
2026-05-05 23:29 9.14644 -79.30885 5206 ft 268 kts 55°
2026-05-05 23:30 9.15699 -79.29308 6084 ft 270 kts 56°
2026-05-05 23:30 9.16384 -79.28213 6576 ft 275 kts 56°
2026-05-05 23:30 9.17924 -79.26148 7645 ft 277 kts 44°
2026-05-05 23:30 9.19333 -79.24760 8355 ft 284 kts 40°
2026-05-05 23:31 9.20897 -79.23503 9188 ft 286 kts 38°
2026-05-05 23:31 9.22457 -79.22229 9977 ft 291 kts 39°
2026-05-05 23:31 9.24061 -79.20907 10459 ft 307 kts 39°
2026-05-05 23:31 9.25215 -79.19968 10561 ft 320 kts 38°
2026-05-05 23:32 9.27021 -79.18518 10885 ft 341 kts 39°
2026-05-05 23:32 9.28859 -79.16984 11726 ft 342 kts 39°
2026-05-05 23:32 9.30706 -79.15503 12457 ft 345 kts 39°
2026-05-05 23:32 9.32603 -79.13984 13110 ft 350 kts 39°
2026-05-05 23:33 9.34388 -79.12295 13741 ft 353 kts 51°
2026-05-05 23:33 9.35901 -79.10331 14451 ft 355 kts 54°
2026-05-05 23:33 9.37378 -79.08312 15111 ft 358 kts 54°
2026-05-05 23:33 9.38872 -79.06274 15741 ft 362 kts 54°
2026-05-05 23:34 9.40385 -79.04216 16325 ft 367 kts 54°
2026-05-05 23:34 9.41917 -79.02136 16915 ft 371 kts 54°
2026-05-05 23:34 9.43467 -79.00034 17538 ft 373 kts 54°
2026-05-05 23:34 9.45026 -78.97925 18145 ft 376 kts 54°
2026-05-05 23:35 9.46719 -78.95884 18685 ft 381 kts 47°
2026-05-05 23:35 9.48583 -78.93964 19211 ft 385 kts 46°
2026-05-05 23:35 9.50498 -78.92053 19747 ft 388 kts 45°
2026-05-05 23:35 9.52386 -78.90091 20255 ft 391 kts 51°
2026-05-05 23:36 9.53938 -78.87830 20754 ft 393 kts 60°
2026-05-05 23:36 9.55117 -78.85318 21231 ft 396 kts 70°
2026-05-05 23:36 9.55912 -78.82633 21683 ft 400 kts 74°
2026-05-05 23:36 9.56618 -78.79897 22131 ft 403 kts 75°
2026-05-05 23:37 9.57318 -78.77131 22537 ft 407 kts 75°
2026-05-05 23:37 9.58031 -78.74347 22936 ft 411 kts 74°
2026-05-05 23:37 9.58763 -78.71539 23325 ft 414 kts 74°
2026-05-05 23:37 9.59509 -78.68710 23712 ft 417 kts 74°
2026-05-05 23:38 9.60264 -78.65866 24104 ft 420 kts 73°
2026-05-05 23:38 9.61027 -78.63002 24478 ft 422 kts 73°
2026-05-05 23:38 9.61793 -78.60122 24860 ft 424 kts 74°
2026-05-05 23:38 9.62637 -78.57245 25208 ft 427 kts 68°
2026-05-05 23:39 9.63906 -78.54530 25566 ft 428 kts 59°
2026-05-05 23:39 9.65589 -78.52035 25899 ft 430 kts 50°
2026-05-05 23:39 9.67513 -78.49707 26240 ft 432 kts 49°
2026-05-05 23:39 9.69473 -78.47395 26573 ft 434 kts 49°
2026-05-05 23:40 9.71450 -78.45073 26905 ft 436 kts 49°
2026-05-05 23:40 9.73434 -78.42732 27201 ft 439 kts 49°
2026-05-05 23:40 9.75426 -78.40366 27493 ft 442 kts 49°
2026-05-05 23:40 9.77421 -78.37983 27803 ft 444 kts 49°
2026-05-05 23:41 9.79395 -78.35617 28112 ft 446 kts 49°
2026-05-05 23:41 9.81399 -78.33206 28390 ft 449 kts 49°
2026-05-05 23:41 9.83413 -78.30781 28653 ft 451 kts 49°
2026-05-05 23:41 9.85442 -78.28337 28924 ft 453 kts 49°
2026-05-05 23:42 9.87477 -78.25884 29194 ft 455 kts 49°
2026-05-05 23:42 9.89522 -78.23420 29459 ft 457 kts 49°
2026-05-05 23:42 9.91575 -78.20945 29705 ft 460 kts 49°
2026-05-05 23:42 9.93640 -78.18456 29946 ft 462 kts 49°
2026-05-05 23:43 9.95712 -78.15958 30197 ft 464 kts 49°
2026-05-05 23:43 9.97795 -78.13446 30448 ft 465 kts 49°
2026-05-05 23:43 9.99881 -78.10931 30691 ft 467 kts 49°
2026-05-05 23:43 10.01974 -78.08406 30925 ft 469 kts 49°
2026-05-05 23:44 10.04074 -78.05873 31196 ft 469 kts 49°
2026-05-05 23:44 10.06171 -78.03342 31546 ft 467 kts 49°
2026-05-05 23:44 10.08258 -78.00822 31919 ft 466 kts 49°
2026-05-05 23:44 10.10340 -77.98308 32286 ft 464 kts 49°
2026-05-05 23:45 10.12413 -77.95804 32602 ft 464 kts 49°
2026-05-05 23:45 10.14490 -77.93295 32920 ft 463 kts 49°
2026-05-05 23:45 10.16558 -77.90798 33245 ft 462 kts 49°
2026-05-05 23:45 10.18624 -77.88303 33575 ft 461 kts 49°
2026-05-05 23:46 10.20683 -77.85814 33894 ft 460 kts 49°
2026-05-05 23:46 10.22740 -77.83327 34227 ft 460 kts 49°
2026-05-05 23:46 10.24795 -77.80843 34523 ft 459 kts 49°
2026-05-05 23:46 10.26849 -77.78361 34790 ft 459 kts 49°
2026-05-05 23:47 10.28902 -77.75876 35053 ft 459 kts 49°
2026-05-05 23:47 10.30950 -77.73398 35338 ft 458 kts 49°
2026-05-05 23:47 10.32998 -77.70918 35640 ft 457 kts 49°
2026-05-05 23:47 10.35042 -77.68444 35904 ft 457 kts 49°
2026-05-05 23:48 10.37088 -77.65967 36152 ft 457 kts 49°
2026-05-05 23:48 10.39130 -77.63493 36386 ft 457 kts 49°
2026-05-05 23:48 10.41173 -77.61018 36600 ft 458 kts 49°
2026-05-05 23:48 10.43215 -77.58544 36845 ft 457 kts 49°
2026-05-05 23:49 10.47316 -77.53575 36846 ft 456 kts 49°
2026-05-05 23:49 10.51336 -77.48696 36839 ft 445 kts 49°
2026-05-05 23:50 10.55316 -77.43866 36859 ft 446 kts 49°
2026-05-05 23:50 10.59315 -77.39019 36859 ft 448 kts 49°
2026-05-05 23:51 10.63326 -77.34161 36857 ft 450 kts 49°
2026-05-05 23:51 10.67355 -77.29281 36853 ft 451 kts 49°
2026-05-05 23:52 10.71389 -77.24388 36853 ft 452 kts 49°
2026-05-05 23:52 10.75430 -77.19482 36853 ft 453 kts 49°
2026-05-05 23:53 10.79472 -77.14573 36846 ft 452 kts 49°
2026-05-05 23:53 10.83486 -77.09698 36841 ft 452 kts 49°
2026-05-05 23:54 10.87533 -77.04814 36849 ft 451 kts 49°
2026-05-05 23:54 10.91580 -76.99950 36849 ft 450 kts 49°
2026-05-05 23:55 10.95617 -76.95095 36848 ft 449 kts 49°
2026-05-05 23:55 10.99650 -76.90235 36845 ft 449 kts 49°
2026-05-05 23:56 11.03675 -76.85379 36844 ft 448 kts 49°
2026-05-05 23:56 11.07690 -76.80533 36841 ft 448 kts 49°
2026-05-05 23:57 11.11705 -76.75685 36839 ft 448 kts 49°
2026-05-05 23:57 11.15718 -76.70839 36845 ft 448 kts 49°
2026-05-05 23:58 11.19731 -76.65989 36841 ft 448 kts 49°
2026-05-05 23:58 11.23742 -76.61139 36840 ft 448 kts 48°
2026-05-05 23:59 11.27754 -76.56282 36842 ft 448 kts 49°
2026-05-05 23:59 11.31749 -76.51398 36841 ft 448 kts 49°
2026-05-06 00:00 11.35736 -76.46510 36843 ft 449 kts 49°
2026-05-06 00:00 11.39732 -76.41614 36842 ft 449 kts 49°
2026-05-06 00:01 11.43703 -76.36749 36845 ft 450 kts 49°
2026-05-06 00:01 11.47707 -76.31843 36844 ft 450 kts 49°
2026-05-06 00:02 11.51718 -76.26926 36844 ft 451 kts 49°
2026-05-06 00:02 11.55725 -76.22008 36844 ft 451 kts 49°
2026-05-06 00:03 11.59736 -76.17084 36845 ft 451 kts 49°
2026-05-06 00:03 11.63741 -76.12165 36844 ft 451 kts 49°
2026-05-06 00:04 11.67747 -76.07245 36842 ft 450 kts 49°
2026-05-06 00:04 11.71745 -76.02329 36844 ft 450 kts 49°
2026-05-06 00:05 11.77735 -75.94960 36844 ft 450 kts 49°
2026-05-06 00:06 11.81733 -75.90060 36840 ft 449 kts 49°
2026-05-06 00:06 11.85735 -75.85164 36844 ft 449 kts 49°
2026-05-06 00:07 11.89728 -75.80272 36860 ft 448 kts 49°
2026-05-06 00:07 11.93719 -75.75377 36862 ft 448 kts 49°
2026-05-06 00:08 11.97711 -75.70479 36861 ft 449 kts 49°
2026-05-06 00:08 12.01674 -75.65614 36860 ft 449 kts 49°
2026-05-06 00:09 12.05667 -75.60710 36863 ft 449 kts 49°
2026-05-06 00:09 12.09663 -75.55800 36861 ft 449 kts 49°
2026-05-06 00:10 12.13658 -75.50887 36859 ft 450 kts 49°
2026-05-06 00:10 12.17661 -75.45958 36857 ft 451 kts 49°
2026-05-06 00:11 12.21671 -75.41023 36852 ft 452 kts 49°
2026-05-06 00:11 12.25684 -75.36084 36853 ft 452 kts 49°
2026-05-06 00:12 12.29700 -75.31134 36852 ft 452 kts 49°
2026-05-06 00:12 12.33717 -75.26182 36859 ft 452 kts 49°
2026-05-06 00:13 12.37731 -75.21231 36861 ft 452 kts 49°
2026-05-06 00:13 12.41747 -75.16275 36861 ft 452 kts 49°
2026-05-06 00:14 12.45734 -75.11349 36860 ft 452 kts 49°
2026-05-06 00:14 12.49773 -75.06358 36862 ft 452 kts 48°
2026-05-06 00:15 12.53757 -75.01429 36845 ft 453 kts 49°
2026-05-06 00:15 12.57774 -74.96459 36841 ft 453 kts 49°
2026-05-06 00:16 12.61794 -74.91482 36844 ft 453 kts 48°
2026-05-06 00:16 12.65814 -74.86501 36849 ft 453 kts 49°
2026-05-06 00:17 12.69827 -74.81524 36852 ft 454 kts 49°
2026-05-06 00:17 12.73849 -74.76533 36855 ft 454 kts 49°
2026-05-06 00:18 12.77871 -74.71542 36864 ft 455 kts 49°
2026-05-06 00:18 12.81895 -74.66541 36869 ft 455 kts 48°
2026-05-06 00:19 12.85914 -74.61542 36868 ft 455 kts 49°
2026-05-06 00:19 12.89945 -74.56530 36872 ft 455 kts 48°
2026-05-06 00:20 12.93975 -74.51517 36872 ft 456 kts 49°
2026-05-06 00:20 12.97327 -74.47343 36869 ft 456 kts 48°
2026-05-06 00:21 13.02011 -74.41506 36872 ft 456 kts 48°
2026-05-06 00:21 13.05390 -74.37295 36868 ft 456 kts 48°
2026-05-06 00:22 13.09429 -74.32272 36870 ft 456 kts 48°
2026-05-06 00:22 13.13449 -74.27273 36871 ft 457 kts 48°
2026-05-06 00:23 13.17488 -74.22245 36870 ft 457 kts 48°
2026-05-06 00:23 13.21530 -74.17209 36869 ft 457 kts 48°
2026-05-06 00:24 13.25571 -74.12170 36879 ft 457 kts 48°
2026-05-06 00:24 13.29612 -74.07127 36881 ft 457 kts 48°
2026-05-06 00:25 13.33654 -74.02079 36877 ft 458 kts 48°
2026-05-06 00:25 13.37701 -73.97025 36878 ft 458 kts 48°
2026-05-06 00:26 13.41748 -73.91969 36882 ft 458 kts 48°
2026-05-06 00:26 13.45803 -73.86898 36880 ft 459 kts 48°
2026-05-06 00:27 13.49857 -73.81823 36879 ft 460 kts 48°
2026-05-06 00:27 13.53915 -73.76741 36882 ft 460 kts 48°
2026-05-06 00:28 13.57978 -73.71648 36882 ft 461 kts 48°
2026-05-06 00:28 13.62042 -73.66541 36876 ft 461 kts 48°
2026-05-06 00:29 13.66098 -73.61432 36889 ft 461 kts 48°
2026-05-06 00:29 13.70151 -73.56327 36886 ft 461 kts 48°
2026-05-06 00:30 13.74202 -73.51223 36890 ft 460 kts 48°
2026-05-06 00:30 13.78246 -73.46122 36890 ft 460 kts 48°
2026-05-06 00:31 13.82287 -73.41021 36891 ft 460 kts 48°
2026-05-06 00:31 13.86302 -73.35953 36886 ft 460 kts 48°
2026-05-06 00:32 13.90361 -73.30876 36892 ft 459 kts 47°
2026-05-06 00:32 13.94513 -73.25891 36890 ft 459 kts 47°
2026-05-06 00:33 13.98676 -73.20915 36890 ft 459 kts 47°
2026-05-06 00:33 14.02824 -73.15929 36889 ft 459 kts 47°
2026-05-06 00:34 14.06966 -73.10933 36902 ft 458 kts 47°
2026-05-06 00:34 14.11106 -73.05933 36893 ft 459 kts 47°
2026-05-06 00:35 14.15248 -73.00929 36903 ft 459 kts 47°
2026-05-06 00:35 14.19393 -72.95919 36900 ft 459 kts 47°
2026-05-06 00:36 14.23538 -72.90904 36909 ft 460 kts 47°
2026-05-06 00:36 14.27680 -72.85891 36945 ft 459 kts 47°
2026-05-06 00:37 14.31822 -72.80875 36942 ft 459 kts 47°
2026-05-06 00:37 14.35961 -72.75858 36944 ft 459 kts 47°
2026-05-06 00:38 14.40104 -72.70834 36945 ft 460 kts 47°
2026-05-06 00:38 14.44247 -72.65869 36946 ft 460 kts 46°
2026-05-06 00:39 14.48435 -72.60868 36946 ft 460 kts 47°
2026-05-06 00:39 14.52616 -72.55861 36944 ft 461 kts 47°
2026-05-06 00:40 14.56778 -72.50830 36955 ft 461 kts 48°
2026-05-06 00:40 14.60864 -72.45723 36950 ft 461 kts 48°
2026-05-06 00:41 14.64972 -72.40638 36955 ft 461 kts 47°
2026-05-06 00:41 14.69117 -72.35587 36953 ft 461 kts 47°
2026-05-06 00:42 14.73260 -72.30539 36954 ft 461 kts 47°
2026-05-06 00:42 14.77401 -72.25479 36956 ft 461 kts 47°
2026-05-06 00:43 14.81538 -72.20414 36965 ft 461 kts 47°
2026-05-06 00:43 14.85671 -72.15350 36963 ft 461 kts 47°
2026-05-06 00:44 14.89799 -72.10290 36959 ft 461 kts 47°
2026-05-06 00:44 14.93930 -72.05219 36965 ft 461 kts 47°
2026-05-06 00:45 14.98058 -72.00150 36964 ft 461 kts 47°
2026-05-06 00:45 15.02187 -71.95076 36969 ft 461 kts 47°
2026-05-06 00:46 15.06318 -71.89999 36972 ft 461 kts 47°
2026-05-06 00:46 15.10454 -71.84911 36972 ft 462 kts 47°
2026-05-06 00:47 15.14593 -71.79817 36970 ft 463 kts 47°
2026-05-06 00:47 15.18736 -71.74713 36975 ft 463 kts 47°
2026-05-06 00:48 15.22879 -71.69606 36975 ft 464 kts 47°
2026-05-06 00:48 15.27031 -71.64483 36970 ft 464 kts 47°
2026-05-06 00:49 15.31180 -71.59362 36977 ft 464 kts 47°
2026-05-06 00:49 15.35331 -71.54235 36983 ft 464 kts 47°
2026-05-06 00:50 15.39483 -71.49104 36981 ft 464 kts 47°
2026-05-06 00:50 15.43630 -71.43973 36983 ft 464 kts 47°
2026-05-06 00:51 15.47784 -71.38833 36982 ft 465 kts 47°
2026-05-06 00:51 15.51905 -71.33727 36984 ft 465 kts 47°
2026-05-06 00:52 15.56080 -71.28601 36980 ft 465 kts 46°
2026-05-06 00:52 15.60315 -71.23538 36989 ft 465 kts 46°
2026-05-06 00:53 15.64548 -71.18475 36995 ft 465 kts 46°
2026-05-06 00:53 15.68774 -71.13396 36987 ft 465 kts 47°
2026-05-06 00:54 15.72988 -71.08321 36990 ft 464 kts 47°
2026-05-06 00:54 15.77176 -71.03224 37014 ft 463 kts 47°
2026-05-06 00:55 15.81313 -70.98106 37019 ft 462 kts 47°
2026-05-06 00:55 15.85446 -70.92993 37018 ft 462 kts 47°
2026-05-06 00:56 15.89585 -70.87880 37018 ft 462 kts 47°
2026-05-06 00:56 15.93723 -70.82766 37021 ft 462 kts 47°
2026-05-06 00:57 15.97861 -70.77649 37023 ft 462 kts 47°
2026-05-06 00:57 16.02004 -70.72541 37033 ft 462 kts 47°
2026-05-06 00:58 16.06183 -70.67457 37023 ft 462 kts 47°
2026-05-06 00:58 16.10360 -70.62378 37029 ft 462 kts 47°
2026-05-06 00:59 16.14541 -70.57282 37028 ft 463 kts 47°
2026-05-06 00:59 16.18724 -70.52174 37028 ft 464 kts 47°
2026-05-06 01:00 16.22916 -70.47056 37029 ft 465 kts 47°
2026-05-06 01:00 16.27081 -70.41961 37046 ft 465 kts 47°
2026-05-06 01:01 16.31276 -70.36825 37033 ft 466 kts 47°
2026-05-06 01:01 16.35476 -70.31682 37037 ft 466 kts 47°
2026-05-06 01:02 16.39673 -70.26540 37036 ft 466 kts 47°
2026-05-06 01:02 16.43865 -70.21396 37042 ft 466 kts 47°
2026-05-06 01:03 16.48057 -70.16252 37037 ft 466 kts 47°
2026-05-06 01:03 16.52246 -70.11113 37038 ft 465 kts 47°
2026-05-06 01:04 16.56437 -70.05976 37035 ft 465 kts 47°
2026-05-06 01:04 16.60628 -70.00836 37038 ft 465 kts 47°
2026-05-06 01:05 16.64814 -69.95696 37042 ft 465 kts 47°
2026-05-06 01:05 16.68968 -69.90594 37049 ft 464 kts 47°
2026-05-06 01:06 16.73178 -69.85425 37055 ft 464 kts 47°
2026-05-06 01:06 16.77350 -69.80290 37058 ft 464 kts 47°
2026-05-06 01:07 16.81500 -69.75184 37062 ft 465 kts 47°
2026-05-06 01:07 16.85680 -69.70035 37065 ft 465 kts 47°
2026-05-06 01:08 16.89867 -69.64871 37067 ft 466 kts 47°
2026-05-06 01:08 16.94056 -69.59703 37073 ft 467 kts 47°
2026-05-06 01:09 16.98251 -69.54523 37075 ft 467 kts 47°
2026-05-06 01:09 17.02453 -69.49328 37074 ft 468 kts 48°
2026-05-06 01:10 17.05937 -69.45001 37072 ft 468 kts 48°
2026-05-06 01:10 17.10124 -69.39786 37078 ft 469 kts 48°
2026-05-06 01:11 17.14320 -69.34559 37085 ft 469 kts 48°
2026-05-06 01:11 17.18519 -69.29328 37082 ft 470 kts 48°
2026-05-06 01:12 17.22733 -69.24098 37082 ft 470 kts 47°
2026-05-06 01:12 17.26956 -69.18875 37085 ft 470 kts 48°
2026-05-06 01:13 17.31177 -69.13643 37084 ft 470 kts 48°
2026-05-06 01:13 17.35387 -69.08400 37083 ft 471 kts 48°
2026-05-06 01:14 17.41705 -69.00524 37093 ft 471 kts 48°
2026-05-06 01:14 17.45918 -68.95268 37078 ft 471 kts 48°
2026-05-06 01:15 17.50127 -68.90008 37100 ft 470 kts 48°
2026-05-06 01:15 17.54323 -68.84761 37098 ft 470 kts 48°
2026-05-06 01:16 17.58518 -68.79510 37103 ft 469 kts 48°
2026-05-06 01:16 17.62708 -68.74261 37093 ft 470 kts 48°
2026-05-06 01:17 17.66900 -68.69002 37106 ft 470 kts 48°
2026-05-06 01:17 17.71095 -68.63739 37108 ft 469 kts 48°
2026-05-06 01:18 17.75222 -68.58554 37070 ft 451 kts 48°
2026-05-06 01:18 17.77211 -68.56055 36784 ft 445 kts 48°
2026-05-06 01:18 17.79211 -68.53546 36019 ft 452 kts 48°
2026-05-06 01:19 17.81228 -68.50986 35413 ft 455 kts 49°
2026-05-06 01:19 17.83211 -68.48406 34944 ft 454 kts 50°
2026-05-06 01:19 17.85178 -68.45816 34519 ft 452 kts 50°
2026-05-06 01:19 17.87130 -68.43241 34123 ft 449 kts 50°
2026-05-06 01:20 17.89067 -68.40687 33735 ft 446 kts 50°
2026-05-06 01:20 17.90994 -68.38153 33348 ft 443 kts 50°
2026-05-06 01:20 17.92909 -68.35637 32960 ft 440 kts 50°
2026-05-06 01:20 17.94815 -68.33135 32587 ft 437 kts 50°
2026-05-06 01:21 17.96705 -68.30652 32208 ft 434 kts 50°
2026-05-06 01:21 17.98581 -68.28190 31832 ft 431 kts 50°
2026-05-06 01:21 18.00446 -68.25740 31462 ft 428 kts 50°
2026-05-06 01:21 18.02298 -68.23308 31090 ft 424 kts 50°
2026-05-06 01:22 18.04133 -68.20897 30725 ft 421 kts 51°
2026-05-06 01:22 18.05958 -68.18499 30359 ft 419 kts 51°
2026-05-06 01:22 18.07767 -68.16119 30000 ft 415 kts 51°
2026-05-06 01:22 18.09563 -68.13755 29634 ft 412 kts 51°
2026-05-06 01:23 18.11347 -68.11406 29262 ft 409 kts 50°
2026-05-06 01:23 18.13116 -68.09075 28879 ft 406 kts 50°
2026-05-06 01:23 18.14869 -68.06766 28495 ft 403 kts 50°
2026-05-06 01:23 18.16611 -68.04470 28128 ft 400 kts 50°
2026-05-06 01:24 18.18338 -68.02192 27761 ft 397 kts 51°
2026-05-06 01:24 18.19693 -67.99679 27361 ft 396 kts 70°
2026-05-06 01:24 18.20208 -67.96896 27029 ft 393 kts 86°
2026-05-06 01:24 18.20323 -67.94039 26670 ft 390 kts 88°
2026-05-06 01:25 18.20389 -67.91201 26303 ft 387 kts 88°
2026-05-06 01:25 18.20444 -67.88374 25940 ft 385 kts 88°
2026-05-06 01:25 18.20502 -67.85574 25580 ft 382 kts 88°
2026-05-06 01:25 18.20570 -67.82750 25216 ft 380 kts 87°
2026-05-06 01:26 18.20643 -67.80022 24864 ft 377 kts 87°
2026-05-06 01:26 18.20721 -67.77275 24509 ft 375 kts 87°
2026-05-06 01:26 18.20802 -67.74544 24159 ft 373 kts 86°
2026-05-06 01:26 18.20884 -67.71828 23803 ft 370 kts 86°
2026-05-06 01:27 18.20966 -67.69129 23461 ft 368 kts 86°
2026-05-06 01:27 18.21048 -67.66445 23109 ft 365 kts 86°
2026-05-06 01:27 18.21129 -67.63786 22764 ft 363 kts 86°
2026-05-06 01:27 18.21209 -67.61139 22417 ft 361 kts 87°
2026-05-06 01:28 18.21288 -67.58505 22078 ft 359 kts 87°
2026-05-06 01:28 18.21367 -67.55888 21737 ft 357 kts 87°
2026-05-06 01:28 18.21444 -67.53290 21397 ft 355 kts 87°
2026-05-06 01:28 18.21521 -67.50705 21057 ft 353 kts 87°
2026-05-06 01:29 18.21597 -67.48136 20727 ft 350 kts 87°
2026-05-06 01:29 18.21672 -67.45583 20386 ft 348 kts 87°
2026-05-06 01:29 18.21746 -67.43043 20060 ft 346 kts 87°
2026-05-06 01:29 18.21820 -67.40520 19729 ft 344 kts 87°
2026-05-06 01:30 18.21893 -67.38008 19398 ft 343 kts 87°
2026-05-06 01:30 18.21965 -67.35510 19061 ft 341 kts 87°
2026-05-06 01:30 18.22036 -67.33030 18743 ft 339 kts 88°
2026-05-06 01:30 18.22106 -67.30559 18421 ft 337 kts 88°
2026-05-06 01:31 18.22176 -67.28104 18097 ft 335 kts 88°
2026-05-06 01:31 18.22246 -67.25661 17772 ft 333 kts 88°
2026-05-06 01:31 18.22315 -67.23238 17451 ft 331 kts 88°
2026-05-06 01:31 18.22384 -67.20805 17044 ft 333 kts 88°
2026-05-06 01:32 18.22451 -67.18381 16717 ft 331 kts 88°
2026-05-06 01:32 18.22519 -67.15968 16391 ft 329 kts 88°
2026-05-06 01:32 18.22585 -67.13574 16066 ft 327 kts 88°
2026-05-06 01:32 18.22649 -67.11192 15751 ft 325 kts 88°
2026-05-06 01:33 18.22714 -67.08853 15440 ft 323 kts 88°
2026-05-06 01:33 18.22779 -67.06494 15118 ft 321 kts 88°
2026-05-06 01:33 18.22843 -67.04153 14810 ft 319 kts 88°
2026-05-06 01:33 18.22906 -67.01821 14494 ft 317 kts 88°
2026-05-06 01:34 18.22969 -66.99513 14191 ft 315 kts 88°
2026-05-06 01:34 18.23030 -66.97210 13888 ft 314 kts 88°
2026-05-06 01:34 18.23091 -66.94926 13575 ft 311 kts 88°
2026-05-06 01:34 18.23151 -66.92658 13266 ft 309 kts 88°
2026-05-06 01:35 18.23211 -66.90403 12958 ft 308 kts 88°
2026-05-06 01:35 18.23271 -66.88162 12647 ft 306 kts 89°
2026-05-06 01:35 18.23330 -66.85935 12344 ft 304 kts 89°
2026-05-06 01:35 18.23388 -66.83720 12035 ft 302 kts 89°
2026-05-06 01:36 18.23445 -66.81519 11738 ft 300 kts 89°
2026-05-06 01:36 18.23502 -66.79332 11437 ft 298 kts 89°
2026-05-06 01:36 18.23558 -66.77157 11136 ft 296 kts 89°
2026-05-06 01:36 18.23613 -66.75004 10835 ft 294 kts 89°
2026-05-06 01:37 18.23669 -66.72861 10541 ft 292 kts 89°
2026-05-06 01:37 18.23723 -66.70730 10244 ft 291 kts 89°
2026-05-06 01:37 18.23777 -66.68620 10064 ft 284 kts 89°
2026-05-06 01:37 18.23828 -66.66562 9836 ft 280 kts 89°
2026-05-06 01:38 18.23882 -66.64521 9559 ft 278 kts 89°
2026-05-06 01:38 18.23933 -66.62490 9278 ft 277 kts 89°
2026-05-06 01:38 18.23982 -66.60465 8998 ft 276 kts 89°
2026-05-06 01:38 18.24031 -66.58461 8715 ft 273 kts 89°
2026-05-06 01:39 18.24081 -66.56469 8437 ft 271 kts 89°
2026-05-06 01:39 18.24130 -66.54490 8161 ft 270 kts 89°
2026-05-06 01:39 18.24178 -66.52522 7893 ft 268 kts 89°
2026-05-06 01:39 18.24280 -66.50572 7592 ft 267 kts 79°
2026-05-06 01:40 18.25011 -66.48800 7378 ft 264 kts 60°
2026-05-06 01:40 18.26014 -66.47177 7089 ft 265 kts 57°
2026-05-06 01:40 18.27049 -66.45580 6817 ft 264 kts 57°
2026-05-06 01:40 18.28083 -66.43989 6542 ft 263 kts 57°
2026-05-06 01:41 18.29106 -66.42405 6270 ft 261 kts 57°
2026-05-06 01:41 18.30124 -66.40822 5997 ft 260 kts 58°
2026-05-06 01:41 18.31119 -66.39265 5729 ft 259 kts 58°
2026-05-06 01:41 18.32119 -66.37690 5458 ft 257 kts 58°
2026-05-06 01:42 18.33111 -66.36130 5199 ft 256 kts 58°
2026-05-06 01:42 18.34095 -66.34578 4945 ft 254 kts 58°
2026-05-06 01:42 18.35073 -66.33037 4679 ft 253 kts 58°
2026-05-06 01:42 18.36048 -66.31498 4418 ft 252 kts 58°
2026-05-06 01:43 18.37022 -66.29971 4169 ft 251 kts 58°
2026-05-06 01:43 18.37993 -66.28440 3907 ft 251 kts 59°
2026-05-06 01:43 18.38959 -66.26921 3690 ft 247 kts 58°
2026-05-06 01:43 18.39902 -66.25443 3566 ft 240 kts 58°
2026-05-06 01:44 18.40818 -66.24002 3458 ft 233 kts 59°
2026-05-06 01:44 18.41701 -66.22609 3366 ft 224 kts 59°
2026-05-06 01:44 18.42538 -66.21296 3271 ft 207 kts 59°
2026-05-06 01:44 18.43242 -66.20058 3163 ft 188 kts 74°
2026-05-06 01:45 18.43398 -66.18740 3025 ft 179 kts 92°
2026-05-06 01:45 18.43395 -66.17454 2836 ft 172 kts 92°
2026-05-06 01:45 18.43389 -66.16194 2684 ft 175 kts 92°
2026-05-06 01:45 18.43385 -66.14911 2469 ft 175 kts 92°
2026-05-06 01:46 18.43382 -66.13652 2229 ft 168 kts 93°
2026-05-06 01:46 18.43380 -66.12457 2008 ft 160 kts 93°
2026-05-06 01:46 18.43376 -66.11301 1801 ft 157 kts 94°
2026-05-06 01:46 18.43373 -66.10160 1597 ft 155 kts 94°
2026-05-06 01:47 18.43370 -66.09040 1412 ft 151 kts 95°
2026-05-06 01:47 18.43367 -66.07946 1201 ft 150 kts 95°
2026-05-06 01:47 18.43365 -66.06838 1005 ft 152 kts 95°
2026-05-06 01:47 18.43362 -66.05741 803 ft 152 kts 94°
2026-05-06 01:48 18.43374 -66.04620 617 ft 154 kts 92°
2026-05-06 01:48 18.43354 -66.03496 423 ft 157 kts 90°
2026-05-06 01:48 18.43357 -66.02363 226 ft 157 kts 91°
2026-05-06 01:48 18.43355 -66.01242 62 ft 156 kts 91°
2026-05-06 01:49 18.43346 -66.00034 791 ft 171 kts 92°
2026-05-06 01:49 18.43266 -65.98638 1499 ft 206 kts 94°
2026-05-06 01:49 18.43325 -65.97043 2243 ft 231 kts 79°
2026-05-06 01:49 18.44122 -65.95478 2794 ft 254 kts 46°
2026-05-06 01:50 18.45672 -65.94657 2987 ft 254 kts 11°
2026-05-06 01:50 18.47410 -65.94946 2984 ft 259 kts 333°
2026-05-06 01:50 18.48659 -65.96269 3003 ft 259 kts 295°
2026-05-06 01:50 18.49084 -65.97465 3025 ft 258 kts 292°
2026-05-06 01:51 18.50442 -65.99081 3003 ft 252 kts 338°
2026-05-06 01:51 18.52133 -65.99355 3024 ft 246 kts
2026-05-06 01:51 18.53852 -65.99479 3002 ft 250 kts 353°
2026-05-06 01:51 18.55546 -65.99788 3003 ft 251 kts 353°
2026-05-06 01:52 18.57292 -66.00090 2995 ft 251 kts 353°
2026-05-06 01:52 18.58997 -66.00384 2995 ft 252 kts 353°
2026-05-06 01:52 18.60725 -66.00686 2997 ft 252 kts 353°
2026-05-06 01:52 18.62459 -66.00993 2999 ft 253 kts 353°
2026-05-06 01:53 18.64193 -66.01303 3000 ft 253 kts 353°
2026-05-06 01:53 18.65929 -66.01615 2999 ft 253 kts 353°
2026-05-06 01:53 18.67667 -66.01929 2999 ft 254 kts 353°
2026-05-06 01:53 18.69410 -66.02249 3009 ft 255 kts 351°
2026-05-06 01:54 18.70969 -66.03073 2975 ft 252 kts 314°
2026-05-06 01:54 18.71967 -66.04552 2988 ft 245 kts 305°
2026-05-06 01:54 18.72979 -66.05976 2980 ft 241 kts 310°
2026-05-06 01:54 18.74058 -66.07320 2983 ft 240 kts 312°
2026-05-06 01:55 18.75165 -66.08630 2984 ft 240 kts 313°
2026-05-06 01:55 18.76283 -66.09931 2982 ft 239 kts 313°
2026-05-06 01:55 18.77474 -66.11136 2958 ft 237 kts 332°
2026-05-06 01:55 18.79030 -66.11582 2987 ft 234 kts
2026-05-06 01:56 18.80609 -66.11244 2978 ft 232 kts 28°
2026-05-06 01:56 18.81877 -66.10258 2973 ft 225 kts 53°
2026-05-06 01:56 18.82595 -66.08828 2976 ft 220 kts 78°
2026-05-06 01:56 18.82660 -66.07237 2982 ft 217 kts 102°
2026-05-06 01:57 18.82079 -66.05782 2987 ft 216 kts 126°
2026-05-06 01:57 18.80997 -66.04680 2987 ft 219 kts 145°
2026-05-06 01:57 18.79582 -66.04074 2982 ft 222 kts 166°
2026-05-06 01:57 18.78077 -66.03795 2982 ft 223 kts 167°
2026-05-06 01:58 18.76529 -66.03521 2972 ft 223 kts 167°
2026-05-06 01:58 18.75020 -66.03252 2975 ft 223 kts 167°
2026-05-06 01:58 18.73470 -66.02974 2979 ft 224 kts 167°
2026-05-06 01:58 18.71953 -66.02700 2984 ft 224 kts 167°
2026-05-06 01:59 18.70411 -66.02423 2982 ft 225 kts 167°
2026-05-06 01:59 18.68856 -66.02209 2969 ft 228 kts 180°
2026-05-06 01:59 18.67356 -66.02744 2986 ft 234 kts 212°
2026-05-06 01:59 18.66268 -66.04038 2977 ft 241 kts 242°
2026-05-06 02:00 18.65916 -66.05758 2998 ft 243 kts 273°
2026-05-06 02:00 18.66449 -66.07423 2982 ft 242 kts 308°
2026-05-06 02:00 18.67756 -66.08478 3023 ft 240 kts 347°
2026-05-06 02:00 18.69429 -66.08613 3373 ft 257 kts 355°
2026-05-06 02:01 18.71102 -66.09473 4021 ft 281 kts 315°
2026-05-06 02:01 18.72032 -66.11270 5055 ft 284 kts 280°
2026-05-06 02:01 18.71901 -66.13318 6120 ft 283 kts 249°
2026-05-06 02:01 18.71213 -66.15271 7132 ft 287 kts 249°
2026-05-06 02:02 18.70550 -66.17272 8082 ft 291 kts 250°
2026-05-06 02:02 18.69931 -66.19325 9019 ft 296 kts 252°
2026-05-06 02:02 18.69353 -66.21423 9922 ft 300 kts 253°
2026-05-06 02:02 18.68802 -66.23579 10596 ft 314 kts 255°
2026-05-06 02:03 18.68241 -66.25901 10934 ft 336 kts 255°
2026-05-06 02:03 18.67681 -66.28328 11673 ft 343 kts 256°
2026-05-06 02:03 18.67134 -66.30776 12572 ft 344 kts 256°
2026-05-06 02:03 18.66594 -66.33242 13422 ft 347 kts 257°
2026-05-06 02:04 18.66061 -66.35699 14236 ft 350 kts 257°
2026-05-06 02:04 18.65512 -66.38249 15019 ft 354 kts 257°
2026-05-06 02:04 18.64966 -66.40792 15814 ft 357 kts 257°
2026-05-06 02:04 18.64418 -66.43351 16582 ft 360 kts 258°
2026-05-06 02:05 18.63871 -66.45905 17312 ft 363 kts 258°
2026-05-06 02:05 18.63313 -66.48509 18084 ft 365 kts 258°
2026-05-06 02:05 18.62752 -66.51126 18804 ft 368 kts 258°
2026-05-06 02:05 18.62183 -66.53777 19450 ft 373 kts 258°
2026-05-06 02:06 18.61608 -66.56456 20073 ft 377 kts 258°
2026-05-06 02:06 18.61026 -66.59167 20695 ft 381 kts 258°
2026-05-06 02:06 18.60437 -66.61906 21296 ft 385 kts 258°
2026-05-06 02:06 18.59841 -66.64674 21843 ft 389 kts 258°
2026-05-06 02:07 18.59238 -66.67471 22404 ft 393 kts 258°
2026-05-06 02:07 18.58631 -66.70288 22984 ft 395 kts 258°
2026-05-06 02:07 18.58023 -66.73107 23700 ft 393 kts 258°
2026-05-06 02:07 18.57418 -66.75908 24456 ft 391 kts 258°
2026-05-06 02:08 18.56817 -66.78690 25172 ft 388 kts 258°
2026-05-06 02:08 18.56217 -66.81462 25843 ft 387 kts 258°
2026-05-06 02:08 18.55621 -66.84219 26528 ft 385 kts 257°
2026-05-06 02:08 18.55028 -66.86960 27236 ft 382 kts 257°
2026-05-06 02:09 18.54438 -66.89685 27857 ft 380 kts 257°
2026-05-06 02:09 18.53850 -66.92396 28081 ft 381 kts 257°
2026-05-06 02:09 18.52667 -66.97842 28103 ft 381 kts 257°
2026-05-06 02:10 18.51484 -67.03291 28112 ft 383 kts 257°
2026-05-06 02:10 18.50293 -67.08760 28108 ft 383 kts 257°
2026-05-06 02:11 18.49687 -67.14325 28110 ft 383 kts 268°
2026-05-06 02:11 18.49612 -67.19937 28098 ft 383 kts 269°
2026-05-06 02:12 18.49534 -67.25536 28102 ft 382 kts 269°
2026-05-06 02:12 18.49436 -67.31117 28099 ft 381 kts 268°
2026-05-06 02:13 18.49227 -67.41528 28099 ft 379 kts 268°
2026-05-06 02:14 18.49110 -67.47077 28101 ft 379 kts 268°
2026-05-06 02:14 18.48992 -67.52636 28104 ft 380 kts 268°
2026-05-06 02:15 18.48874 -67.58205 28104 ft 381 kts 268°
2026-05-06 02:15 18.48751 -67.63781 28101 ft 381 kts 268°
2026-05-06 02:16 18.48628 -67.69364 28101 ft 381 kts 268°
2026-05-06 02:16 18.48504 -67.74950 28102 ft 382 kts 268°
2026-05-06 02:17 18.48378 -67.80533 28101 ft 381 kts 268°
2026-05-06 02:17 18.48250 -67.86112 28100 ft 380 kts 268°
2026-05-06 02:18 18.48120 -67.91676 28102 ft 380 kts 268°
2026-05-06 02:18 18.47991 -67.97207 28051 ft 372 kts 268°
2026-05-06 02:19 18.47928 -67.99916 27754 ft 368 kts 268°
2026-05-06 02:19 18.47868 -68.02584 27564 ft 361 kts 269°
2026-05-06 02:19 18.47813 -68.05214 27240 ft 357 kts 269°
2026-05-06 02:19 18.47760 -68.07814 26894 ft 354 kts 269°
2026-05-06 02:20 18.47654 -68.12925 26201 ft 349 kts 269°
2026-05-06 02:20 18.47601 -68.15471 25852 ft 347 kts 269°
2026-05-06 02:20 18.47547 -68.18004 25501 ft 344 kts 269°
2026-05-06 02:21 18.47494 -68.20516 25154 ft 342 kts 270°
2026-05-06 02:21 18.47439 -68.23010 24808 ft 340 kts 270°
2026-05-06 02:21 18.47385 -68.25493 24465 ft 338 kts 270°
2026-05-06 02:21 18.47330 -68.27963 24120 ft 336 kts 270°
2026-05-06 02:22 18.47275 -68.30418 23778 ft 335 kts 270°
2026-05-06 02:22 18.47222 -68.32862 23448 ft 333 kts 270°
2026-05-06 02:22 18.47169 -68.35293 23104 ft 331 kts 270°
2026-05-06 02:22 18.47114 -68.37707 22773 ft 329 kts 270°
2026-05-06 02:23 18.47060 -68.40110 22435 ft 327 kts 270°
2026-05-06 02:23 18.47005 -68.42498 22098 ft 325 kts 270°
2026-05-06 02:23 18.46952 -68.44869 21770 ft 323 kts 270°
2026-05-06 02:23 18.46898 -68.47230 21442 ft 322 kts 269°
2026-05-06 02:24 18.46844 -68.49578 21113 ft 320 kts 269°
2026-05-06 02:24 18.46789 -68.51918 20782 ft 318 kts 269°
2026-05-06 02:24 18.46736 -68.54210 20467 ft 316 kts 269°
2026-05-06 02:24 18.46681 -68.56522 20145 ft 315 kts 269°
2026-05-06 02:25 18.46627 -68.58822 19823 ft 313 kts 269°
2026-05-06 02:25 18.46573 -68.61111 19503 ft 312 kts 269°
2026-05-06 02:25 18.46519 -68.63384 19182 ft 310 kts 269°
2026-05-06 02:25 18.46465 -68.65647 18869 ft 308 kts 269°
2026-05-06 02:26 18.46411 -68.67903 18541 ft 307 kts 269°
2026-05-06 02:26 18.46357 -68.70152 18158 ft 308 kts 269°
2026-05-06 02:26 18.46303 -68.72400 17834 ft 306 kts 269°
2026-05-06 02:26 18.46249 -68.74635 17509 ft 305 kts 269°
2026-05-06 02:27 18.46194 -68.76865 17190 ft 304 kts 269°
2026-05-06 02:27 18.46139 -68.79084 16867 ft 302 kts 268°
2026-05-06 02:27 18.46072 -68.81289 16559 ft 301 kts 268°
2026-05-06 02:27 18.45996 -68.83486 16240 ft 300 kts 268°
2026-05-06 02:28 18.45918 -68.85676 15933 ft 298 kts 268°
2026-05-06 02:28 18.45840 -68.87856 15624 ft 297 kts 268°
2026-05-06 02:28 18.45763 -68.90028 15322 ft 296 kts 268°
2026-05-06 02:28 18.45686 -68.92191 15001 ft 295 kts 268°
2026-05-06 02:29 18.45609 -68.94347 14693 ft 293 kts 267°
2026-05-06 02:29 18.45533 -68.96487 14388 ft 293 kts 267°
2026-05-06 02:29 18.45457 -68.98630 14075 ft 292 kts 267°
2026-05-06 02:29 18.45382 -69.00762 13776 ft 291 kts 267°
2026-05-06 02:30 18.45307 -69.02884 13472 ft 290 kts 267°
2026-05-06 02:30 18.45232 -69.05002 13168 ft 289 kts 267°
2026-05-06 02:30 18.45156 -69.07110 12867 ft 288 kts 267°
2026-05-06 02:30 18.45081 -69.09212 12564 ft 287 kts 267°
2026-05-06 02:31 18.45005 -69.11311 12266 ft 286 kts 267°
2026-05-06 02:31 18.44931 -69.13373 11964 ft 285 kts 266°
2026-05-06 02:31 18.44856 -69.15460 11668 ft 285 kts 266°
2026-05-06 02:31 18.44780 -69.17536 11440 ft 281 kts 267°
2026-05-06 02:32 18.44707 -69.19566 11311 ft 274 kts 266°
2026-05-06 02:32 18.44635 -69.21553 11181 ft 268 kts 266°
2026-05-06 02:32 18.44564 -69.23485 11062 ft 261 kts 266°
2026-05-06 02:32 18.44494 -69.25373 10946 ft 254 kts 266°
2026-05-06 02:33 18.44439 -69.27222 10791 ft 253 kts 268°
2026-05-06 02:33 18.44416 -69.28472 10663 ft 253 kts 268°
2026-05-06 02:33 18.44351 -69.32789 10090 ft 253 kts 268°
2026-05-06 02:34 18.44321 -69.34645 9835 ft 253 kts 268°
2026-05-06 02:34 18.44290 -69.36497 9576 ft 253 kts 268°
2026-05-06 02:34 18.44258 -69.38348 9322 ft 253 kts 267°
2026-05-06 02:34 18.44227 -69.40197 9065 ft 253 kts 267°
2026-05-06 02:35 18.44195 -69.42050 8807 ft 253 kts 268°
2026-05-06 02:35 18.44504 -69.43866 8516 ft 255 kts 298°
2026-05-06 02:35 18.45633 -69.45276 8292 ft 252 kts 320°
2026-05-06 02:35 18.46995 -69.46437 8026 ft 253 kts 322°
2026-05-06 02:36 18.48381 -69.47581 7766 ft 253 kts 323°
2026-05-06 02:36 18.49766 -69.48722 7504 ft 253 kts 323°
2026-05-06 02:36 18.51155 -69.49875 7256 ft 254 kts 322°
2026-05-06 02:36 18.52534 -69.51027 6994 ft 254 kts 322°
2026-05-06 02:37 18.53912 -69.52183 6735 ft 252 kts 322°
2026-05-06 02:37 18.55283 -69.53334 6486 ft 252 kts 322°
2026-05-06 02:37 18.56658 -69.54488 6241 ft 253 kts 322°
2026-05-06 02:37 18.58032 -69.55648 5983 ft 253 kts 322°
2026-05-06 02:38 18.59406 -69.56808 5725 ft 253 kts 322°
2026-05-06 02:38 18.60780 -69.57968 5488 ft 253 kts 322°
2026-05-06 02:38 18.62152 -69.59126 5238 ft 252 kts 322°
2026-05-06 02:38 18.63520 -69.60281 4998 ft 252 kts 322°
2026-05-06 02:39 18.64846 -69.61482 4753 ft 252 kts 310°
2026-05-06 02:39 18.65582 -69.63119 4502 ft 248 kts 276°
2026-05-06 02:39 18.65423 -69.64875 4290 ft 237 kts 248°
2026-05-06 02:39 18.64672 -69.66326 4153 ft 215 kts 232°
2026-05-06 02:40 18.63833 -69.67564 3948 ft 202 kts 230°
2026-05-06 02:40 18.63056 -69.68740 3759 ft 191 kts 232°
2026-05-06 02:40 18.62320 -69.69889 3573 ft 188 kts 232°
2026-05-06 02:40 18.61598 -69.71027 3403 ft 184 kts 231°
2026-05-06 02:41 18.60869 -69.72121 3220 ft 183 kts 228°
2026-05-06 02:41 18.59845 -69.72817 3023 ft 174 kts 187°
2026-05-06 02:41 18.58685 -69.72715 2852 ft 167 kts 158°
2026-05-06 02:41 18.57569 -69.72298 2678 ft 172 kts 159°
2026-05-06 02:42 18.56451 -69.71891 2484 ft 166 kts 159°
2026-05-06 02:42 18.55391 -69.71503 2276 ft 159 kts 159°
2026-05-06 02:42 18.54349 -69.71119 2073 ft 159 kts 159°
2026-05-06 02:42 18.53329 -69.70743 1880 ft 154 kts 159°
2026-05-06 02:43 18.52329 -69.70372 1685 ft 151 kts 159°
2026-05-06 02:43 18.51349 -69.70007 1478 ft 149 kts 159°
2026-05-06 02:43 18.50372 -69.69644 1309 ft 149 kts 159°
2026-05-06 02:43 18.49381 -69.69275 1108 ft 151 kts 159°
2026-05-06 02:44 18.48391 -69.68905 877 ft 152 kts 159°
2026-05-06 02:44 18.47420 -69.68521 715 ft 150 kts 159°
2026-05-06 02:44 18.46420 -69.68148 545 ft 150 kts 160°
2026-05-06 02:44 18.45446 -69.67800 332 ft 151 kts 160°
2026-05-06 02:45 18.44462 -69.67436 143 ft 150 kts 160°
2026-05-06 02:45 18.43506 -69.67089 62 ft 129 kts 161°
2026-05-06 02:45 18.42865 -69.66853 69 ft 66 kts 161°
2026-05-06 02:45 18.42525 -69.66729 66 ft 48 kts 161°
2026-05-06 02:46 18.42309 -69.66650 66 ft 21 kts 160°
2026-05-06 02:46 18.42213 -69.66706 62 ft 17 kts 274°
2026-05-06 02:46 18.42222 -69.66734 67 ft 0 kts 294°
2026-05-06 02:46 18.42237 -69.66767 63 ft 13 kts 297°
2026-05-06 02:47 18.42335 -69.66857 65 ft 25 kts 341°
2026-05-06 02:47 18.42510 -69.66919 60 ft 26 kts 341°
2026-05-06 02:47 18.42676 -69.66981 67 ft 27 kts 340°
2026-05-06 02:47 18.42847 -69.67045 61 ft 24 kts 340°
2026-05-06 02:48 18.42949 -69.67126 65 ft 19 kts 277°
2026-05-06 02:48 18.42964 -69.67274 61 ft 16 kts 275°
2026-05-06 02:48 18.42970 -69.67343 54 ft 8 kts 276°
2026-05-06 02:48 18.42960 -69.67397 57 ft 8 kts 249°
2026-05-06 02:49 18.42948 -69.67432 66 ft 3 kts 251°
2026-05-06 02:49 18.42946 -69.67438 64 ft 0 kts 251°
2026-05-06 02:49 18.42945 -69.67440 66 ft 0 kts 251°
2026-05-06 02:49 18.42945 -69.67441 63 ft 0 kts 251°